Regional Weather Roundup
Issued by NWS

Home | Current Version | Previous Version | Text Only | Print | Product List | Glossary On
Versions: 1 2 3 4 5 6 7 8 9 10 11 12 13 14 15 16 17 18 19 20 21 22 23 24 25 26 27 28 29 30 31 32 33 34 35 36 37 38 39 40 41 42 43 44 45 46 47 48 49 50
000
ASMX46 KSGX 042311
RWRMX

MEXICAN WEATHER ROUNDUP
NATIONAL WEATHER SERVICE SAN DIEGO CA
400 PM PDT FRI SEP 04 2015

BAJA CALIFORNIA

CITY           SKY/WX    TMP DP  RH WIND       PRES   REMARKS
ENSENADA NW      N/A     74  32  21 W6        29.83S
LA PAZ         PTSUNNY   95  68  41 NW12      29.77S HX  99
LORETO         PTSUNNY   90  77  66 NE14      29.75F HX 102
MEXICALI       MOSUNNY  100  48  17 SE10      29.67F HX  97
S.J. DEL CABO  MOSUNNY   90  72  55 E21       29.77F HX  96
TIJUANA        SUNNY     73  55  53 W13       29.87F

NORTHWESTERN MEXICO

CITY           SKY/WX    TMP DP  RH WIND       PRES   REMARKS
CHIHUAHUA      MOSUNNY   93  46  20 E14       29.87F
CULIACAN       MOSUNNY   91  77  62 W13       29.77F HX 105
GUAYMAS        MOSUNNY   93  72  49 W14       29.74S HX 100
HERMOSILLO     CLOUDY    90  70  51 NW5       29.86S HX  95
JUAREZ         PTSUNNY   90  59  35 CALM      29.92F
LOS MOCHIS     MOSUNNY   91  72  52 SW14      29.77S HX  98
OBREGON        MOSUNNY   99  61  28 NW5       29.73F HX  99

NORTHEASTERN MEXICO

CITY           SKY/WX    TMP DP  RH WIND       PRES   REMARKS
MATAMOROS      PTSUNNY   91  79  66 SE12      29.88S HX 107
MONCLOVA         N/A    N/A N/A N/A MISG        N/A
MONTERREY      PTSUNNY   91  64  40 E8        29.82F
NUEVO LAREDO   MOSUNNY  104  70  33 SE9       29.79S HX 112
PIEDRAS NEGRAS PTSUNNY   99  72  41 SE8       29.83F HX 107
REYNOSA        MOSUNNY   90  70  51 SE9       29.83S HX  95
SALTILLO       MOSUNNY   81  64  57 N23       30.04S
TORREON        MOSUNNY   95  46  18 N3        29.92F
VICTORIA       MOSUNNY   93  64  38 S15       29.82F HX  95

WESTERN MEXICO

CITY           SKY/WX    TMP DP  RH WIND       PRES   REMARKS
AGUASCALIENTES LGT RAIN  64  59  82 W7        30.11F
COLIMA         PTSUNNY   75  70  83 CALM      29.91F
DURANGO        MOSUNNY   86  34  15 NE5       30.07F
GUADALAJARA    PTSUNNY   81  57  44 S5        30.02F
MANZANILLO     PTSUNNY   79  73  83 SE12      29.75
MAZATLAN       MOSUNNY   88  75  66 SW14      29.72F HX  97
PTO. VALLARTA  TSTM      79  77  94 S9        29.75R VSB 1/2
TEPIC          CLOUDY    70  68  94 NE6       29.92F
URUAPAN        PTSUNNY   72  64  78 CALM      30.08F
ZACATECAS      PTSUNNY   75  54  46 S12       30.15F

CENTRAL MEXICO

CITY           SKY/WX    TMP DP  RH WIND       PRES   REMARKS
CUERNAVACA       N/A    N/A N/A N/A MISG        N/A
LEON           PTSUNNY   79  55  44 N7        30.13F
MEXICO CITY    CLOUDY    66  55  68 NE15      30.23  THUNDER
MORELIA        MOSUNNY   77  57  50 S13       30.09F
POZA RICA      MOSUNNY   90  75  62 E12       29.86R HX 100
PUEBLA         CLOUDY    59  55  88 W5        30.24F
QUERETARO      MOSUNNY   79  54  41 NE12      30.14F
S. LUIS POTOSI MOSUNNY   79  52  38 NE17      30.11F
TAMPICO        PTSUNNY   88  75  66 E12       29.84F HX  97
TOLUCA         PTSUNNY   63  52  67 CALM      30.28F
VERACRUZ       MOSUNNY   86  77  74 E10       29.81F HX  97

SOUTHERN MEXICO

CITY           SKY/WX    TMP DP  RH WIND       PRES   REMARKS
ACAPULCO       PTSUNNY   86  77  74 SE12      29.79S HX  97
B. DE HUATULCO MOSUNNY   82  72  69 E13       29.89S
MINATITLAN     MOSUNNY   86  68  54 N12       29.74F
OAXACA         DRIZZLE   68  61  77 W10       30.09R
PTO. ESCONDIDO PTSUNNY   84  75  74 SE12      29.90S
TAPACHULA      CLOUDY    77  73  88 N12       29.85
TUX. GUTIERREZ PTSUNNY   84  66  54 NE13      29.84F
VILLAHERMOSA   MOSUNNY   95  72  46 E9        29.79F HX 103
ZIHUATANEJO    PTSUNNY   90  75  62 SW6       29.77F HX 100

YUCATAN PENINSULA

CITY           SKY/WX    TMP DP  RH WIND       PRES   REMARKS
CAMPECHE       MOSUNNY   86  81  84 N21       29.80F HX 102
CANCUN         MOSUNNY   88  77  70 NE12      29.93S HX 100
CHETUMAL       PTSUNNY   88  77  70 SE7       29.87R HX 100
C. DEL CARMEN  MOSUNNY   88  79  74 NE16      29.82R HX 102
COZUMEL        MOSUNNY   84  77  79 NE8       29.92R
MERIDA         PTSUNNY   86  75  70 E6        29.90R HX  95

$$




USA.gov is the U.S. government's official web portal to all federal, state and local government web resources and services.